Find Starlink 11718

NORAD ID: 64132 Int'l Des: 2025-111 Owner: SPXS Country: US Constellation: starlink operational
LEOCIRCULAR

Current View

Loading 3D Globe...

About Starlink 11718

Description loading...

Upcoming Passes

Passes for default location (London). Set your location on the main map for personalized predictions.

Altitude History

Loading altitude history...

Two-Line Element Set

1 64132U 25111K 26159.28468880 .00088019 00000-0 68149-3 0 9990
2 64132 42.9995 148.1037 0002305 313.5841 46.4835 15.70863426 60935
Epoch: Jun 8, 2026 • Age: 17 hours

Current Status

Altitude 356.9 km
Velocity 7.70 km/s
Sub-Earth Point -12.61°S, 120.33°W
Launch Date May 24, 2025
Age 1 years
Type internet

Technical Details

Classification Payload
Mass 960.00 kg
Dry Mass 910.00 kg
Total Mass 960.00 kg
Length 0.30 m
Diameter 4.10 m
Span 29.00 m
Shape Box + pan
Manufacturer SPXS
Bus Type Starlink V2MD
Phase Status In Orbit
Owner/State SPXS/US

Most Searched